sat.trackr.live / text

‹ back to catalog

STARLINK-34362

NORAD 64292 · 2025-123B

PAYLOAD ACTIVE UNKNOWN

§ Identity

Operator
Country
US
Launch date
2025-06-08
Launch site
AFWTR
Launch vehicle
Mass (kg)
RCS (m²)

Purposes: comms

External: N2YO · Heavens-Above · Gunter

§ Orbital elements

Epoch: 2026-09-20T16:40:53.625504Z

Period
94.14 min
Inclination
70.0002°
Eccentricity
0.0003672
Mean motion
15.29582177 rev/d
Perigee alt
474.5 km
Apogee alt
479.6 km
Semi-major
6,855.2 km
B*
5.2039e-4
RAAN
60.5844°
Arg perigee
273.1433°
Mean anomaly
86.9322°
Rev number
7,210

§ Raw data

STARLINK-343621 64292U 25123B   26263.69506511  .00014863  00000+0  52039-3 0  99912 64292  70.0002  60.5844 0003672 273.1433  86.9322 15.29582177 72109

JSON: /api/v1/satellites/64292 · /tle

For live sub-satellite position, see the globe view (requires WebGL).

§ Visibility from observer

Set your observer location to see the next 7 days of passes ≥ 10°. The values pass through the URL so the page stays shareable.

No JS? Fill the form by hand. The geolocation button needs JavaScript.